This demonstration page uses our WeatherBlox Daily Observations layout. Learn more.

Left ArrowRight Arrow

53.62937, 11.41316

Hourly Observations for May 2, 2021

Temp ( °F °C ) Dew Point ( °F °C ) Humidity (%) Winds ( mph kmh ) Pressure ( in mb ) Visibility ( mi km ) Precip ( " mm )
7:20 am 07:20 Mostly Cloudy with Mist and Fog 41 5 41 5 100 100 VRB 2 4 29.89 1012 1 1 N/A
7:50 am 07:50 Cloudy with Mist and Fog 41 5 41 5 100 100 WSW 3 6 29.89 1012 1 1 N/A
8:20 am 08:20 Mostly Cloudy with Fog 43 6 41 5 93 93 W 6 9 29.89 1012 0 1 N/A
8:50 am 08:50 Mostly Cloudy with Fog 43 6 43 6 100 100 WNW 6 9 29.89 1012 0 1 N/A
9:20 am 09:20 Mostly Cloudy with Mist and Fog 45 7 45 7 100 100 W 6 9 29.89 1012 1 2 N/A
9:50 am 09:50 Mostly Cloudy with Mist and Fog 46 8 46 8 100 100 WSW 5 7 29.89 1012 3 5 N/A
10:20 am 10:20 Mostly Cloudy 48 9 45 7 87 87 VRB 5 7 29.89 1012 30 48 N/A
10:50 am 10:50 Mostly Cloudy 48 9 43 6 82 82 WSW 5 7 29.89 1012 30 48 N/A
11:20 am 11:20 Mostly Cloudy 50 10 41 5 71 71 WSW 7 11 29.89 1012 30 48 N/A
11:50 am 11:50 Mostly Cloudy 52 11 45 7 77 77 SW 10 17 29.89 1012 30 48 N/A
12:20 pm 12:20 Partly Cloudy 52 11 43 6 72 72 VRB 6 9 29.89 1012 30 48 N/A
12:50 pm 12:50 Partly Cloudy 54 12 41 5 63 63 SW 8 13 29.89 1012 30 48 N/A
1:20 pm 13:20 Partly Cloudy 54 12 41 5 63 63 SW 8 13 29.89 1012 30 48 N/A
1:50 pm 13:50 Partly Cloudy 54 12 39 4 58 58 WSW 9 15 29.89 1012 30 48 N/A
2:20 pm 14:20 Partly Cloudy 52 11 39 4 62 62 SW 12 19 29.89 1012 30 48 N/A
2:50 pm 14:50 Partly Cloudy 54 12 37 3 54 54 VRB 5 7 29.89 1012 30 48 N/A
3:20 pm 15:20 Partly Cloudy 55 13 36 2 47 47 WSW 8 13 29.88 1012 30 48 N/A
3:50 pm 15:50 Partly Cloudy 55 13 39 4 55 55 WSW 10 17 29.88 1012 30 48 N/A
4:20 pm 16:20 Partly Cloudy 55 13 41 5 59 59 W 7 11 29.88 1012 30 48 N/A
4:50 pm 16:50 Partly Cloudy 55 13 39 4 55 55 WSW 12 19 29.88 1012 30 48 N/A
5:20 pm 17:20 Partly Cloudy 54 12 41 5 63 63 WSW 8 13 29.89 1012 30 48 N/A
5:50 pm 17:50 Partly Cloudy 52 11 39 4 62 62 W 8 13 29.89 1012 30 48 N/A
6:20 pm 18:20 Partly Cloudy with Showers Nearby 46 8 41 5 82 82 WSW 9 15 29.92 1013 30 48 N/A
6:50 pm 18:50 Partly Cloudy with Showers Nearby 46 8 39 4 76 76 SW 13 20 29.92 1013 30 48 N/A
7:20 pm 19:20 Mostly Cloudy with Light Showers 45 7 41 5 87 87 WSW 7 11 29.95 1014 30 48 N/A
7:50 pm 19:50 Partly Cloudy with Light Showers 45 7 43 6 93 93 VRB 5 7 29.95 1014 30 48 N/A
8:20 pm 20:20 Partly Cloudy with Showers Nearby 45 7 43 6 93 93 SSW 5 7 29.95 1014 30 48 N/A
8:50 pm 20:50 Partly Cloudy 45 7 41 5 87 87 WSW 9 15 29.95 1014 30 48 N/A
9:20 pm 21:20 Partly Cloudy with Light Showers 45 7 41 5 87 87 WSW 9 15 29.95 1014 30 48 N/A
9:50 pm 21:50 Mostly Cloudy with Showers Nearby 45 7 41 5 87 87 WSW 8 13 29.95 1014 30 48 N/A

Powered by AerisWeather